KKYDRYRI2 Weather Reports


time (UTC)temp
C
wind
direction
speed
KPH
gust
KPH
rain 1hr
cm
rain 24hr
cm
rain mn
cm
humidity
%
barometer
mb
20260906035718 22 101 0.0 0.0 0.00 0.33 0.33 97 1013.2
20260906034743 22 101 0.0 0.0 0.00 0.33 0.33 97 1013.0
20260906033730 22 101 0.0 0.0 0.00 0.33 0.33 97 1013.0
20260906032753 23 101 0.0 0.0 0.00 0.33 0.33 96 1012.8
20260906031747 23 101 0.0 0.0 0.00 0.33 0.33 96 1012.8
20260906030725 23 101 0.0 0.0 0.00 0.33 0.33 96 1013.1
20260906025742 23 101 0.0 0.0 0.00 0.33 0.33 96 1012.8
20260906024715 23 101 0.0 0.0 0.00 0.33 0.33 95 1012.8
20260906023716 23 101 0.0 0.0 0.00 0.33 0.33 95 1012.6
20260906022656 23 101 0.0 0.0 0.00 0.33 0.33 95 1012.6
20260906021712 23 101 0.0 1.6 0.00 0.33 0.33 94 1012.6
20260906020723 24 101 0.0 0.0 0.00 0.33 0.33 94 1012.7
20260906015727 24 101 0.0 1.6 0.00 0.33 0.33 93 1013.3
20260906014740 25 101 0.0 12.9 0.00 0.33 0.33 93 1013.1
20260906013804 25 108 1.6 12.9 0.13 0.33 0.33 92 1013.6
20260906012817 25 140 0.0 1.6 0.15 0.33 0.33 90 1012.7
20260906011754 25 140 1.6 14.5 0.00 0.30 0.30 89 1012.7
20260906010735 25 110 4.8 14.5 0.00 0.30 0.30 90 1012.7
20260906005702 25 136 3.2 11.3 0.00 0.30 0.30 90 1012.6
20260906004715 25 65 0.0 1.6 0.00 0.30 0.30 88 1012.1
20260906003739 26 27 0.0 1.6 0.00 0.30 0.30 89 1012.0
20260906002727 26 23 0.0 0.0 0.00 0.30 0.30 87 1011.6
20260906001714 26 23 0.0 0.0 0.00 0.30 0.30 86 1011.3
20260906000657 26 23 0.0 0.0 0.00 0.30 0.30 86 1011.4
20260905235713 26 23 0.0 0.0 0.00 0.30 0.30 85 1011.6
20260905234718 26 23 0.0 1.6 0.00 0.30 0.30 84 1011.8
20260905233719 26 23 0.0 0.0 0.00 0.30 0.30 84 1012.0
20260905232657 26 23 1.6 4.8 0.00 0.30 0.30 84 1012.2
20260905231625 27 26 1.6 6.4 0.00 0.30 0.30 84 1012.1
20260905230611 27 13 3.2 9.7 0.00 0.30 0.30 83 1012.1
20260905225636 27 24 3.2 9.7 0.00 0.30 0.30 82 1012.3
20260905224603 27 35 1.6 14.5 0.00 0.30 0.30 81 1012.4
20260905223547 28 26 3.2 14.5 0.00 0.30 0.30 80 1012.3
20260905222529 29 9 3.2 12.9 0.00 0.30 0.30 76 1012.2
20260905221517 30 5 3.2 9.7 0.00 0.30 0.30 72 1011.9
20260905220534 32 36 1.6 6.4 0.00 0.30 0.30 66 1011.9
20260905215501 33 145 1.6 12.9 0.00 0.30 0.30 63 1011.6
20260905213336 33 65 1.6 8.0 0.00 0.30 0.30 62 1011.5
20260905212347 33 119 3.2 9.7 0.00 0.30 0.30 63 1011.4
20260905211358 33 165 1.6 11.3 0.00 0.30 0.30 64 1011.3
20260905210418 33 126 3.2 11.3 0.00 0.30 0.30 62 1011.4
20260905204312 33 144 3.2 14.5 0.00 0.30 0.30 63 1011.6
20260905203304 33 132 3.2 9.7 0.00 0.30 0.30 62 1011.6
20260905202255 33 105 3.2 12.9 0.00 0.30 0.30 62 1011.8
20260905201246 33 70 3.2 12.9 0.00 0.30 0.30 61 1011.9
20260905200221 33 101 3.2 11.3 0.00 0.30 0.30 61 1012.1
20260905195228 32 355 3.2 14.5 0.00 0.30 0.30 61 1012.3
20260905194229 32 0 4.8 14.5 0.00 0.30 0.30 61 1012.4
20260905193201 32 51 1.6 8.0 0.00 0.30 0.30 61 1012.7
20260905192135 32 99 3.2 12.9 0.00 0.30 0.30 63 1012.7
20260905190041 32 149 1.6 8.0 0.00 0.30 0.30 63 1013.0
20260905185021 32 96 1.6 9.7 0.00 0.30 0.30 63 1013.2
20260905184019 32 65 1.6 11.3 0.00 0.30 0.30 64 1013.4
20260905181949 31 338 3.2 12.9 0.00 0.30 0.30 66 1013.5
20260905180953 31 16 1.6 12.9 0.00 0.30 0.30 69 1013.4
20260905180001 31 57 3.2 12.9 0.00 0.30 0.30 70 1013.5
20260905175024 30 111 3.2 8.0 0.00 0.30 0.30 69 1013.6
20260905174005 30 17 1.6 14.5 0.00 0.30 0.30 72 1013.6
20260905172958 30 350 3.2 14.5 0.00 0.30 0.30 71 1013.7
20260905171937 30 0 1.6 8.0 0.00 0.30 0.30 72 1013.8
20260905170912 29 17 1.6 8.0 0.00 0.30 0.30 73 1014.1
20260905165920 28 42 3.2 6.4 0.00 0.30 0.30 72 1014.1
20260905164854 28 49 1.6 11.3 0.00 0.30 0.30 74 1014.2
20260905162721 28 89 1.6 6.4 0.00 0.30 0.30 76 1014.2
20260905155431 26 5 4.8 14.5 0.00 0.30 0.30 78 1014.1
20260905154414 26 351 4.8 14.5 0.00 0.30 0.30 78 1014.2
20260905153420 26 342 4.8 12.9 0.00 0.30 0.30 80 1014.3
20260905152347 26 355 4.8 14.5 0.00 0.30 0.30 81 1014.3
20260905151352 25 0 3.2 14.5 0.00 0.30 0.30 83 1014.2
20260905150320 25 355 3.2 12.9 0.00 0.30 0.30 83 1014.1
20260905145306 24 9 3.2 11.3 0.00 0.30 0.30 86 1014.2
20260905144242 23 13 0.0 11.3 0.00 0.30 0.30 89 1014.5
20260905143300 23 355 3.2 11.3 0.00 0.30 0.30 90 1014.5
20260905142229 22 351 3.2 8.0 0.00 0.30 0.30 93 1014.7
20260905141201 22 15 0.0 4.8 0.00 0.30 0.30 97 1014.8
20260905140148 22 15 0.0 1.6 0.00 0.30 0.30 97 1015.1
20260905135144 21 12 0.0 0.0 0.00 0.30 0.30 97 1015.1
20260905134138 21 11 0.0 0.0 0.00 0.30 0.30 97 1015.2
20260905133148 21 11 0.0 0.0 0.00 0.30 0.30 97 1015.5
20260905132117 21 11 0.0 0.0 0.00 0.30 0.30 97 1015.8
20260905131115 21 9 0.0 0.0 0.00 0.30 0.30 96 1015.8
20260905130121 21 9 0.0 0.0 0.00 0.30 0.30 96 1016.2
20260905125142 21 9 0.0 0.0 0.00 0.30 0.30 95 1016.6
20260905124139 21 0 3.2 11.3 0.00 0.30 0.30 94 1017.1
20260905123158 21 14 0.0 4.8 0.00 0.30 0.30 95 1017.0
20260905121011 21 355 11.3 20.9 0.23 0.30 0.30 93 1016.9
20260905115950 22 355 0.0 9.7 2.49 0.15 0.23 92 1016.9
20260905114925 22 355 0.0 6.4 0.13 0.05 0.05 90 1016.6
20260905113907 23 38 1.6 11.3 0.23 0.03 0.05 89 1016.7
20260905112909 23 119 4.8 20.9 0.00 0.00 0.00 87 1016.8
20260905111930 24 140 6.4 20.9 0.00 0.00 0.00 86 1015.7
20260905110908 25 123 6.4 16.1 0.00 0.00 0.00 88 1015.9
20260905105905 25 151 0.0 9.7 0.00 0.00 0.00 88 1014.6
20260905104917 25 104 1.6 6.4 0.00 0.00 0.00 88 1013.8
20260905103908 25 96 1.6 6.4 0.00 0.00 0.00 89 1013.4
20260905102928 25 105 1.6 11.3 0.00 0.00 0.00 91 1013.0
20260905100746 23 128 0.0 0.0 0.00 0.00 0.00 97 1013.1
20260905095725 23 128 0.0 1.6 0.00 0.00 0.00 96 1013.3
20260905094711 23 128 0.0 1.6 0.00 0.00 0.00 96 1013.3
20260905093639 23 128 0.0 1.6 0.00 0.00 0.00 96 1013.2
20260905092623 23 128 0.0 0.0 0.00 0.00 0.00 96 1013.2
20260905091550 23 128 0.0 0.0 0.00 0.00 0.00 96 1013.1
20260905090548 23 128 0.0 0.0 0.00 0.00 0.00 96 1013.3
20260905085531 23 128 0.0 0.0 0.00 0.00 0.00 96 1013.3
20260905084526 23 128 0.0 0.0 0.00 0.00 0.00 96 1013.2
20260905083529 23 128 0.0 1.6 0.00 0.00 0.00 95 1013.1
20260905082528 23 128 0.0 1.6 0.00 0.00 0.00 95 1013.0
20260905081506 23 128 0.0 1.6 0.00 0.00 0.00 96 1012.8
20260905080523 23 128 0.0 0.0 0.00 0.00 0.00 96 1012.8
20260905075507 23 128 0.0 1.6 0.00 0.00 0.00 96 1012.7
20260905073418 23 128 0.0 0.0 0.00 0.00 0.00 96 1012.7
20260905072441 23 128 0.0 0.0 0.00 0.00 0.00 96 1012.7
20260905071415 23 128 0.0 0.0 0.00 0.00 0.00 96 1012.8
20260905065245 23 128 0.0 0.0 0.00 0.00 0.00 96 1013.2
20260905064310 23 128 0.0 0.0 0.00 0.00 0.00 96 1013.4
20260905063326 23 128 0.0 1.6 0.00 0.00 0.00 96 1013.4
20260905062323 23 128 0.0 0.0 0.00 0.00 0.00 96 1013.6
20260905061346 24 128 0.0 0.0 0.00 0.00 0.00 96 1013.6
20260905060331 24 128 0.0 0.0 0.00 0.00 0.00 96 1013.8
20260905051825 24 128 0.0 1.6 0.00 0.00 0.00 95 1014.3
20260905045635 24 128 0.0 1.6 0.00 0.00 0.00 95 1014.5
20260905044659 24 128 0.0 0.0 0.00 0.00 0.00 95 1014.5
20260905043703 24 128 0.0 0.0 0.00 0.00 0.00 94 1014.4
20260905042653 24 128 0.0 1.6 0.00 0.00 0.00 94 1014.5
20260905041649 24 128 0.0 1.6 0.00 0.00 0.00 94 1014.5
20260905040630 24 128 0.0 0.0 0.00 0.00 0.00 94 1014.5